KMASWX Weather Reports


Display with metric or nautical units.
time (UTC)temp
F
wind
direction
speed
MPH
gust
MPH
rain 1hr
in
rain 24hr
in
rain mn
in
humidity
%
barometer
mb
20260505073924 59 9 1.0 2.0 0.00 0.00 0.00 44
20260505073420 60 23 1.0 2.0 0.00 0.00 0.00 43
20260505072917 60 206 0.0 3.0 0.00 0.00 0.00 43
20260505072412 60 22 2.0 5.0 0.00 0.00 0.00 43
20260505071906 60 0 3.0 6.0 0.00 0.00 0.00 43
20260505071402 61 358 2.0 5.0 0.00 0.00 0.00 42
20260505070859 60 16 3.0 7.0 0.00 0.00 0.00 42
20260505070352 61 327 4.0 6.0 0.00 0.00 0.00 42
20260505065849 61 1 3.0 10.0 0.00 0.00 0.00 41
20260505065345 60 306 4.0 9.0 0.00 0.00 0.00 43
20260505064839 60 355 6.0 7.0 0.00 0.00 0.00 43
20260505064335 60 23 4.0 5.0 0.00 0.00 0.00 44
20260505063832 61 16 4.0 4.0 0.00 0.00 0.00 43
20260505063328 60 330 2.0 5.0 0.00 0.00 0.00 43
20260505062820 61 315 4.0 4.0 0.00 0.00 0.00 43
20260505062315 61 345 2.0 5.0 0.00 0.00 0.00 43
20260505061304 61 14 2.0 5.0 0.00 0.00 0.00 43
20260505060254 62 15 4.0 6.0 0.00 0.00 0.00 43
20260505055750 62 39 1.0 4.0 0.00 0.00 0.00 42
20260505055246 63 9 3.0 6.0 0.00 0.00 0.00 41
20260505054740 63 8 5.0 6.0 0.00 0.00 0.00 41
20260505053733 63 319 0.0 5.0 0.00 0.00 0.00 41
20260505053230 63 355 4.0 5.0 0.00 0.00 0.00 41
20260505052726 62 5 0.0 5.0 0.00 0.00 0.00 42
20260505052219 62 21 2.0 6.0 0.00 0.00 0.00 42
20260505051716 63 25 4.0 4.0 0.00 0.00 0.00 41
20260505051213 64 338 1.0 4.0 0.00 0.00 0.00 39
20260505050706 65 240 2.0 4.0 0.00 0.00 0.00 39
20260505050202 64 347 2.0 5.0 0.00 0.00 0.00 38
20260505041626 69 299 0.0 7.0 0.00 0.00 0.00 34
20260505041123 69 345 6.0 8.0 0.00 0.00 0.00 33
20260505040619 69 358 6.0 9.0 0.00 0.00 0.00 32
20260505035607 69 307 7.0 7.0 0.00 0.00 0.00 33
20260505035100 69 313 6.0 9.0 0.00 0.00 0.00 33
20260505034049 69 322 6.0 5.0 0.00 0.00 0.00 33
20260505033546 69 357 2.0 5.0 0.00 0.00 0.00 32
20260505033042 70 358 5.0 3.0 0.00 0.00 0.00 31
20260505032539 72 330 1.0 3.0 0.00 0.00 0.00 30
20260505031028 74 343 2.0 4.0 0.00 0.00 0.00 28
20260505030525 75 274 3.0 3.0 0.00 0.00 0.00 27
20260505025014 77 234 3.0 7.0 0.00 0.00 0.00 24
20260505024507 77 255 4.0 7.0 0.00 0.00 0.00 24
20260505024004 78 247 2.0 8.0 0.00 0.00 0.00 23
20260505023500 77 246 4.0 9.0 0.00 0.00 0.00 23
20260505022957 78 240 7.0 9.0 0.00 0.00 0.00 22
20260505022450 78 302 4.0 9.0 0.00 0.00 0.00 22
20260505021945 78 258 7.0 12.0 0.00 0.00 0.00 22
20260505021442 78 271 7.0 14.0 0.00 0.00 0.00 21
20260505020434 78 257 6.0 12.0 0.00 0.00 0.00 22
20260505015930 79 262 7.0 12.0 0.00 0.00 0.00 21
20260505014918 79 233 4.0 10.0 0.00 0.00 0.00 22
20260505014414 80 226 8.0 11.0 0.00 0.00 0.00 22
20260505013404 80 250 11.0 12.0 0.00 0.00 0.00 21
20260505012900 79 248 9.0 12.0 0.00 0.00 0.00 21
20260505012357 79 255 10.0 16.0 0.00 0.00 0.00 22
20260505011347 80 215 10.0 15.0 0.00 0.00 0.00 21
20260505010842 80 251 6.0 14.0 0.00 0.00 0.00 21
20260505010339 80 236 10.0 13.0 0.00 0.00 0.00 20
20260505005835 80 264 8.0 15.0 0.00 0.00 0.00 21
20260505004826 80 244 6.0 12.0 0.00 0.00 0.00 21
20260505004322 80 229 5.0 12.0 0.00 0.00 0.00 20
20260505003814 81 209 10.0 17.0 0.00 0.00 0.00 21
20260505003311 80 239 13.0 12.0 0.00 0.00 0.00 20
20260505002808 81 265 7.0 10.0 0.00 0.00 0.00 22
20260505002304 80 234 7.0 14.0 0.00 0.00 0.00 21
20260505000749 80 223 7.0 14.0 0.00 0.00 0.00 20
20260505000243 80 230 10.0 15.0 0.00 0.00 0.00 22
20260504235231 80 234 11.0 15.0 0.00 0.00 0.00 21
20260504234727 80 227 10.0 16.0 0.00 0.00 0.00 22
20260504234223 80 236 13.0 14.0 0.00 0.00 0.00 22
20260504232206 82 239 13.0 14.0 0.00 0.00 0.00 20
20260504231659 82 227 11.0 10.0 0.00 0.00 0.00 21
20260504231155 81 315 4.0 12.0 0.00 0.00 0.00 22
20260504230652 81 279 2.0 12.0 0.00 0.00 0.00 21
20260504225641 81 203 11.0 12.0 0.00 0.00 0.00 22
20260504224126 80 236 6.0 12.0 0.00 0.00 0.00 21
20260504223621 81 253 10.0 13.0 0.00 0.00 0.00 22
20260504223118 80 195 5.0 10.0 0.00 0.00 0.00 22
20260504222614 81 227 3.0 10.0 0.00 0.00 0.00 21
20260504222110 82 215 7.0 10.0 0.00 0.00 0.00 21
20260504221102 82 194 8.0 13.0 0.00 0.00 0.00 21
20260504220558 82 199 5.0 9.0 0.00 0.00 0.00 21
20260504220052 82 208 7.0 11.0 0.00 0.00 0.00 20
20260504215549 81 198 8.0 11.0 0.00 0.00 0.00 20
20260504214542 80 277 2.0 15.0 0.00 0.00 0.00 22
20260504213532 81 300 4.0 10.0 0.00 0.00 0.00 19
20260504213028 83 229 7.0 10.0 0.00 0.00 0.00 20
20260504212520 81 237 4.0 11.0 0.00 0.00 0.00 23
20260504212017 80 255 6.0 12.0 0.00 0.00 0.00 20
20260504211513 80 234 11.0 7.0 0.00 0.00 0.00 21
20260504211010 80 178 5.0 11.0 0.00 0.00 0.00 21
20260504210503 80 196 10.0 13.0 0.00 0.00 0.00 24
20260504205959 80 202 8.0 12.0 0.00 0.00 0.00 21
20260504205451 80 293 9.0 15.0 0.00 0.00 0.00 21
20260504204948 80 201 9.0 10.0 0.00 0.00 0.00 21
20260504204444 81 201 9.0 10.0 0.00 0.00 0.00 22
20260504203941 81 178 3.0 16.0 0.00 0.00 0.00 20
20260504203437 79 298 0.0 14.0 0.00 0.00 0.00 23
20260504202430 79 251 9.0 15.0 0.00 0.00 0.00 22
20260504201927 80 292 5.0 11.0 0.00 0.00 0.00 21
20260504201423 81 278 2.0 11.0 0.00 0.00 0.00 23
20260504200918 79 189 8.0 12.0 0.00 0.00 0.00 24
20260504200410 77 199 9.0 11.0 0.00 0.00 0.00 24
20260504195403 79 230 3.0 14.0 0.00 0.00 0.00 24
20260504194857 78 234 9.0 12.0 0.00 0.00 0.00 25
20260504194353 78 205 9.0 10.0 0.00 0.00 0.00 24
20260504193849 77 232 5.0 11.0 0.00 0.00 0.00 24
20260504193343 77 281 8.0 12.0 0.00 0.00 0.00 25
20260504192840 78 220 8.0 9.0 0.00 0.00 0.00 25
20260504192336 78 212 7.0 11.0 0.00 0.00 0.00 27
20260504191832 77 175 5.0 9.0 0.00 0.00 0.00 26
20260504191329 77 201 6.0 10.0 0.00 0.00 0.00 27
20260504190826 76 277 7.0 10.0 0.00 0.00 0.00 28
20260504185816 76 164 7.0 9.0 0.00 0.00 0.00 28
20260504185312 77 53 4.0 6.0 0.00 0.00 0.00 27
20260504184806 74 340 2.0 7.0 0.00 0.00 0.00 30
20260504183758 73 232 6.0 8.0 0.00 0.00 0.00 31
20260504183255 74 209 5.0 6.0 0.00 0.00 0.00 29
20260504182748 74 272 3.0 3.0 0.00 0.00 0.00 30
20260504182244 73 15 1.0 5.0 0.00 0.00 0.00 31
20260504181737 73 205 1.0 4.0 0.00 0.00 0.00 32
20260504181233 72 237 2.0 5.0 0.00 0.00 0.00 34
20260504180729 71 156 4.0 7.0 0.00 0.00 0.00 34
20260504180225 71 258 4.0 7.0 0.00 0.00 0.00 35
20260504175721 71 219 6.0 9.0 0.00 0.00 0.00 35
20260504175216 70 136 0.0 6.0 0.00 0.00 0.00 34
20260504174713 70 198 4.0 0.0 0.00 0.00 0.00 34
20260504174209 69 171 0.0 0.0 0.00 0.00 0.00 34
20260504173702 70 171 0.0 0.0 0.00 0.00 0.00 34
20260504172655 68 171 0.0 6.0 0.00 0.00 0.00 36
20260504172151 68 194 5.0 5.0 0.00 0.00 0.00 38
20260504171645 68 180 2.0 7.0 0.00 0.00 0.00 41
20260504171141 67 208 2.0 4.0 0.00 0.00 0.00 40
20260504170638 67 241 2.0 5.0 0.00 0.00 0.00 42
20260504170131 66 172 0.0 5.0 0.00 0.00 0.00 42
20260504150951 60 202 0.0 0.0 0.00 0.00 0.00 52
20260504150443 58 202 0.0 0.0 0.00 0.00 0.00 54
20260504140853 55 33 0.0 0.0 0.00 0.00 0.00 58
20260504140350 54 33 0.0 0.0 0.00 0.00 0.00 60
20260504130757 50 35 0.0 2.0 0.00 0.00 0.00 62
20260504130253 50 26 0.0 3.0 0.00 0.00 0.00 63
20260504110606 53 30 2.0 4.0 0.00 0.00 0.00 57
20260504081833 59 23 0.0 4.0 0.00 0.00 0.00 44
20260504081329 58 2 3.0 4.0 0.00 0.00 0.00 45
20260504080825 58 348 3.0 3.0 0.00 0.00 0.00 46
20260504080321 58 243 0.0 0.0 0.00 0.00 0.00 47